Home > Weather > Weyhe > Past weeks

Flag for Germany Weather for the Past 2 Weeks in Weyhe, Lower Saxony, Germany

Now
32 °F

Light snow. Passing clouds.


Feels Like: 19 °F
Forecast: 36 / 44 °F
Wind: 24 mph from Northwest

Location: Bremen Airport

Current Time: Feb 9, 2016 at 10:47:53 PM

Latest Report: Feb 9, 2016 at 10:20 PM


Visibility: 1 mi

Pressure: 28.91 "Hg

Humidity: 100%

Dew point: 32 °F

Location of WeyheLocation

Historic Weather in Weyhe — Graph

°F

Weyhe Temperature Yesterday

Maximum temperature yesterday: 50 °F (at 11:50 AM)
Minimum temperature yesterday: 43 °F (at 12:20 AM)
Average temperature yesterday: 46 °F

High & Low Weather Summary for the Past Weeks

 TemperatureHumidityPressure
High54 °F (Jan 27, 6:20 PM)100% (Jan 28, 1:20 AM)30.24 "Hg (Jan 28, 1:20 AM)
Low32 °F (Feb 4, 10:50 PM)61% (Feb 3, 1:20 PM)28.74 "Hg (Feb 9, 8:20 PM)
Average45 °F83%29.79 "Hg
* Reported Jan 25 9:20 PM — Feb 9 9:20 PM, Weyhe, Weather by CustomWeather, © 2016

Note: Actual official high and low records may vary slightly from our data, if they occured in-between our weather recording intervals... More about our weather records

Advertising

Weyhe Weather History for the Previous 24 Hours

 ConditionsComfort  
Time TempWeatherWind HumidityBarometerVisibility
9:20 PM
Tue, Feb 9
34 °FLight rain. Passing clouds.25 mph93%28.80 "Hg4 mi
8:50 PM39 °FLight rain. Passing clouds.15 mph100%28.77 "Hg5 mi
8:20 PM41 °FLight rain. Passing clouds.5 mph93%28.74 "HgN/A
7:50 PM41 °FRain. Passing clouds.7 mph93%28.77 "HgN/A
7:20 PM39 °FRain. Passing clouds.14 mph100%28.77 "Hg5 mi
6:50 PM39 °FRain. Mostly cloudy.17 mph93%28.80 "HgN/A
6:20 PM39 °FRain. Mostly cloudy.18 mph87%28.85 "Hg5 mi
5:50 PM39 °FRain. Mostly cloudy.16 mph93%28.88 "Hg4 mi
4:50 PM43 °FRain. Mostly cloudy.15 mph87%28.94 "HgN/A
4:20 PM43 °FRain. Mostly cloudy.14 mph87%28.97 "HgN/A
3:50 PM45 °FLight rain. More clouds than sun.9 mph76%29.00 "HgN/A
3:20 PM45 °FCloudy.10 mph76%29.03 "HgN/A
2:50 PM45 °FMostly cloudy.8 mph76%29.06 "HgN/A
2:20 PM45 °FMostly cloudy.10 mph76%29.09 "HgN/A
1:50 PM45 °FMostly cloudy.10 mph81%29.12 "HgN/A
1:20 PM45 °FBroken clouds.10 mph81%29.15 "HgN/A
12:50 PM45 °FPartly sunny.10 mph81%29.18 "HgN/A
12:20 PM45 °FPartly sunny.13 mph76%29.21 "HgN/A
11:20 AM45 °FScattered clouds.16 mph76%29.24 "HgN/A
10:50 AM46 °FScattered clouds.16 mph71%29.24 "HgN/A
10:20 AM45 °FPartly sunny.16 mph76%29.27 "HgN/A
9:50 AM45 °FScattered clouds.16 mph76%29.27 "HgN/A
9:20 AM45 °FPartly sunny.18 mph76%29.27 "HgN/A
8:50 AM45 °FSprinkles. Partly sunny.18 mph71%29.27 "HgN/A
8:20 AM45 °FPartly sunny.21 mph71%29.27 "HgN/A
7:50 AM43 °FPassing clouds.17 mph76%29.30 "HgN/A
6:50 AM43 °FPassing clouds.21 mph76%29.30 "HgN/A
6:20 AM45 °FPassing clouds.22 mph71%29.30 "HgN/A
5:50 AM45 °FPassing clouds.28 mph71%29.27 "HgN/A
5:20 AM45 °FPassing clouds.20 mph76%29.27 "HgN/A
4:50 AM45 °FPassing clouds.24 mph81%29.27 "HgN/A
4:20 AM45 °FLight rain. Passing clouds.26 mph81%29.27 "HgN/A
3:50 AM45 °FLight rain. Passing clouds.26 mph87%29.24 "HgN/A
3:20 AM45 °FLight rain. Passing clouds.30 mph87%29.24 "HgN/A
2:50 AM45 °FLight rain. Passing clouds.23 mph87%29.21 "HgN/A
2:20 AM41 °FSprinkles. Passing clouds.16 mph93%29.24 "HgN/A
1:50 AM41 °FSprinkles. Passing clouds.26 mph93%29.21 "HgN/A
1:20 AM41 °FSprinkles. Passing clouds.24 mph93%29.21 "Hg5 mi
12:50 AM41 °FSprinkles. Passing clouds.15 mph93%29.21 "HgN/A
12:20 AM41 °FSprinkles. Passing clouds.21 mph93%29.18 "HgN/A
11:50 PM
Mon, Feb 8
43 °FSprinkles. Passing clouds.28 mph93%29.18 "Hg5 mi
11:20 PM45 °FSprinkles. Passing clouds.26 mph81%29.15 "HgN/A
10:50 PM45 °FLight rain. Passing clouds.25 mph87%29.15 "HgN/A
10:20 PM45 °FLight rain. Passing clouds.28 mph81%29.15 "HgN/A
Weather by CustomWeather, © 2016

See weather overviewHow to use our weather pages